This is the latest recevied weather packets stored in our database for station/object KB3AWQ. If no packets are shown the sender has not sent any weather packets the latest 10 day(s).
| Time | Temp. | Humidity | Pressure | Rain* | Wind** | Luminosity | Snow |
|---|---|---|---|---|---|---|---|
| 1777929566 | 24.44° C | 33% | 1006.2 hPa | 0 mm | - | 67 W/m² | - |
| 1777929267 | 25° C | 33% | 1006.4 hPa | 0 mm | - | 73 W/m² | - |
| 1777928967 | 25° C | 32% | 1006.3 hPa | 0 mm | - | 90 W/m² | - |
| 1777928667 | 25° C | 34% | 1006.2 hPa | 0 mm | - | 119 W/m² | - |
| 1777928367 | 25° C | 35% | 1006.3 hPa | 0 mm | - | 149 W/m² | - |
| 1777928066 | 25° C | 35% | 1006.4 hPa | 0 mm | - | 494 W/m² | - |
| 1777927766 | 25° C | 34% | 1006.4 hPa | 0 mm | - | 497 W/m² | - |
| 1777927466 | 25° C | 35% | 1006.5 hPa | 0 mm | - | 340 W/m² | - |
| 1777927166 | 24.44° C | 37% | 1006.5 hPa | 0 mm | - | 433 W/m² | - |
| 1777926867 | 24.44° C | 36% | 1006.6 hPa | 0 mm | - | 487 W/m² | - |
| 1777926567 | 24.44° C | 37% | 1006.7 hPa | 0 mm | - | 561 W/m² | - |
| 1777926267 | 24.44° C | 37% | 1006.8 hPa | 0 mm | - | 608 W/m² | - |
| 1777925967 | 24.44° C | 38% | 1006.9 hPa | 0 mm | - | 167 W/m² | - |
| 1777925668 | 25° C | 35% | 1006.9 hPa | 0 mm | - | 445 W/m² | - |
| 1777925366 | 25° C | 37% | 1006.9 hPa | 0 mm | - | 603 W/m² | - |
| 1777925066 | 24.44° C | 38% | 1007.2 hPa | 0 mm | - | 626 W/m² | - |
| 1777924768 | 24.44° C | 37% | 1007.2 hPa | 0 mm | - | 613 W/m² | - |
| 1777924168 | 24.44° C | 36% | 1007.3 hPa | 0 mm | - | 641 W/m² | - |
| 1777923874 | 23.89° C | 38% | 1007.3 hPa | 0 mm | - | 674 W/m² | - |
| 1777923567 | 23.89° C | 39% | 1007.6 hPa | 0 mm | - | 654 W/m² | - |
| 1777923267 | 23.89° C | 38% | 1007.8 hPa | 0 mm | - | 202 W/m² | - |
| 1777922966 | 24.44° C | 37% | 1007.8 hPa | 0 mm | - | 476 W/m² | - |
| 1777922666 | 24.44° C | 39% | 1007.9 hPa | 0 mm | - | 790 W/m² | - |
| 1777922366 | 23.89° C | 39% | 1008 hPa | 0 mm | - | 789 W/m² | - |
| 1777922066 | 23.89° C | 41% | 1008 hPa | 0 mm | - | 235 W/m² | - |
* Rain latest hour (hover to see other rain measurements)
** Current wind speed in m/s (hover to see current wind gust speed)